SCP
0 0 0 0 0 0 0 0 0 0 0 0 0 0 0 0 0 0 0 0 0 0 0 0 0 0 0 0 0 0 0 0 0 0 0 0 0 0 0 0 0 0 0
0 0 0 0 0 0 0 0 0 0 0 0 0 0 0 0 0 0 0 0 0 0 0 0 0 0 0 0 0 0 0 0 0 0 0 0 0 0 0 0 0 0 0
0 0 0 0 0 0 0 0 0 0 0 0 0 0 0 0 0 0 0 0 0 0 0 0 0 0 0 0 0 0 0 0 0 0 0 0 0 0 0 0 0 0 0
0 0 0 0 0 0 0 0 0 0 0 0 0 0 0 0 0 0 0 0 0 0 0 0 0 0 0 0 0 0 0 0 0 0 0 0 0 0 0 0 0 0 0
0 0 0 0 0 0 0 0 0 0 0 0 0 0 0 0 0 0 0 0 0 0 0 0 0 0 0 0 0 0 0 0 0 0 0 0 0 0 0 0 0 0 0
0 0 0 0 0 0 0 0 0 0 0 0 0 0 0 0 0 0 0 0 0 0 0 0 0 0 0 0 0 0 0 0 0 0 0 0 0 0 0 0 0 0 0
0 0 0 0 0 0 0 0 0 0 0 0 0 0 0 0 0 0 0 0 0 0 0 0 0 0 0 0 0 0 0 0 0 0 0 0 0 0 0 0 0 0 0
0 0 0 0 0 0 0 0 0 0 0 0 0 0 0 0 0 0 0 0 0 0 0 0 0 0 0 0 0 0 0 0 0 0 0 0 0 0 0 0 0 0 0
0 0 0 0 0 0 0 0 0 0 0 0 0 0 0 0 0 0 0 0 0 0 0 0 0 0 0 0 0 0 0 0 0 0 0 0 0 0 0 0 0 0 0
0 0 0 0 0 0 0 0 0 0 0 0 0 0 0 0 0 0 0 0 0 0 0 0 0 0 0 0 0 0 0 0 0 0 0 0 0 0 0 0 0 0 0
0 0 0 0 0 0 0 0 0 0 0 0 0 0 0 0 0 0 0 0 0 0 0 0 0 0 0 0 0 0 0 0 0 0 0 0 0 0 0 0 0 0 0
0 0 0 0 0 0 0 0 0 0 0 0 0 0 0 0 0 0 0 0 0 0 0 0 0 0 0 0 0 0 0 0 0 0 0 0 0 0 0 0 0 0 0
0 0 0 0 0 0 0 0 0 0 0 0 0 0 0 0 0 0 0 0 0 0 0 0 0 0 0 0 0 0 0 0 0 0 0 0 0 0 0 0 0 0 0
0 0 0 0 0 0 0 0 0 0 0 0 0 0 0 0 0 0 0 0 0 0 0 0 0 0 0 0 0 0 0 0 0 0 0 0 0 0 0 0 0 0 0
0 0 0 0 0 0 0 0 0 0 0 0 0 0 0 0 0 0 0 0 0 0 0 0 0 0 0 0 0 0 0 0 0 0 0 0 0 0 0 0 0 0 0
0 0 0 0 0 0 0 0 0 0 0 0 0 0 0 0 0 0 0 0 0 0 0 0 0 0 0 0 0 0 0 0 0 0 0 0 0 0 0 0 0 0 0
0 0 0 0 0 0 0 0 0 0 0 0 0 -0 -0 0 0 0 0 0 0 0 0 0 0 0 0 0 0 0 0 0 0 0 0 0 0 0 0 0 0 0 0
0 0 0 0 0 0 -0 -0 -0 -0 0 0 0 0 0 0 0 0 0 0 0 0 0 0 0 0 0 0 0 0 0 0 0 0 0 0 0 0 0 0 0 0 0
0 0 0 0 -0 -0 -0 -0 -0 0 0 0 0 -0 -0 0 0 0 0 0 0 0 0 0 0 0 0 0 0 0 0 0 0 0 0 0 0 0 0 0 0 0 0
0 -0 0 0 0 -0 -0 0 0 0 0 -0 0 0 0 0 0 0 0 0 0 0 0 0 0 0 0 0 0 0 0 0 0 0 0 0 0 0 0 0 0 0 0
0 0 0 0 0 0 0 0 0 0 0 0 0 0 0 0 0 0 0 0 0 0 0 0 0 0 0 0 0 0 0 0 0 0 0 0 0 0 0 0 0 0 0
-0 -0 -0 -0 -0 0 0 0 0 0 0 0 0 0 0 0 0 0 0 0 0 0 0 0 0 0 0 0 0 0 0 0 0 0 0 0 0 0 0 0 0 0 0
-0 -0 -0 -0 -0 0 0 0 0 0 0 0 0 0 0 0 0 0 0 0 0 0 0 0 0 0 0 0 0 0 0 0 0 0 0 0 0 0 0 0 0 0 0
-0 -0 -0 0 0 0 0 0 0 0 0 0 0 0 0 0 0 0 0 0 0 0 0 0 0 0 0 0 0 0 0 0 0 0 0 0 0 0 0 0 0 0 0
0 0 0 0 0 0 0 0 0 0 0 0 0 0 0 0 0 0 0 0 0 0 0 0 0 0 0 0 0 0 0 0 0 0 0 0 0 0 0 0 0 0 0
0 0 0 0 0 0 0 0 0 0 0 0 0 0 0 0 0 0 0 0 0 0 0 0 0 0 0 0 0 0 0 0 0 0 0 0 0 0 0 0 0 0 0
Wind_Speed_500mb
66 72 64 69 54 72 70 67 74 75 71 68 61 57 54 50 46 46 40 36 32 27 21 20 17 14 11 10 10 8 5 6 11 10 8 9 11 13 13 12 13 16 17
67 57 69 67 61 76 75 69 77 80 79 71 66 61 55 56 50 46 45 39 32 24 21 19 17 15 14 13 10 8 7 8 12 11 13 11 14 20 16 15 14 14 16
78 67 71 79 71 80 81 76 81 82 80 77 72 65 58 57 55 51 46 38 30 25 24 21 18 17 16 12 10 8 8 8 9 12 14 10 13 15 20 17 14 15 18
77 80 72 80 81 82 83 79 80 81 81 78 73 69 74 68 59 51 42 39 31 26 26 25 23 22 18 15 12 8 7 7 11 12 14 14 17 15 11 18 17 16 20
79 80 84 84 82 87 89 84 81 84 82 75 73 69 67 60 50 52 46 40 34 32 32 30 27 23 19 14 9 9 9 11 10 13 14 14 12 13 13 12 17 19 21
80 81 81 81 86 90 90 91 85 87 82 76 76 76 64 62 60 54 55 47 40 40 36 31 28 24 18 9 6 11 10 9 10 12 13 13 13 11 10 11 13 17 18
81 84 84 87 84 92 92 92 88 92 86 83 78 75 69 69 56 58 58 56 50 43 37 33 28 21 10 5 12 13 10 9 9 11 12 13 12 12 14 13 15 16 20
85 90 89 85 79 89 93 92 89 94 91 85 83 75 68 70 64 66 61 59 48 40 37 34 27 14 11 22 16 15 13 10 10 12 13 13 14 15 17 18 16 17 18
81 92 88 83 78 85 87 85 85 86 90 90 81 79 72 73 70 69 65 58 47 47 43 36 21 15 28 19 19 16 14 13 13 13 15 18 17 17 20 21 20 20 15
73 83 86 81 68 71 81 82 81 78 78 82 83 79 76 76 74 75 67 59 52 44 38 26 21 22 14 23 20 19 17 16 16 18 20 21 22 23 25 26 26 27 29
63 78 71 64 57 69 78 82 80 79 78 79 86 85 82 77 74 65 59 52 48 38 23 21 19 21 27 25 24 22 21 21 21 23 25 26 27 29 31 31 33 34 36
70 76 76 71 69 76 74 75 72 76 77 81 84 82 78 76 63 62 54 45 40 24 13 25 26 26 27 27 26 25 25 26 27 29 31 31 32 35 37 37 38 41 43
64 63 65 73 71 74 79 76 75 72 72 72 73 58 53 51 39 37 45 32 19 22 26 24 26 24 27 28 29 30 31 31 34 36 37 36 39 41 43 44 46 47 50
57 55 53 54 51 48 51 46 48 47 43 36 38 44 47 50 55 42 30 24 21 24 20 23 26 28 31 31 31 35 37 38 39 42 43 44 46 48 50 52 52 53 55
46 45 45 45 46 43 40 41 41 42 45 44 54 62 47 39 30 23 21 20 21 19 22 26 28 30 33 33 36 40 41 44 46 49 50 50 52 54 58 61 58 60 62
51 55 53 46 51 48 45 41 43 51 53 58 54 46 35 23 15 14 16 18 17 19 24 27 30 34 36 36 40 44 48 51 52 54 53 55 57 61 64 66 68 69 67
44 46 45 43 46 53 54 58 61 62 52 46 40 32 21 9 6 10 16 14 17 24 28 31 34 36 39 41 45 50 53 56 56 58 58 60 62 64 68 69 72 73 74
47 48 53 55 59 58 58 57 51 45 37 28 20 12 12 16 13 12 16 21 25 30 34 35 37 41 43 47 50 54 60 61 60 62 63 66 67 67 69 70 73 75 76
52 52 61 54 55 50 47 43 38 27 17 9 7 14 19 18 18 19 22 28 34 37 39 42 46 48 46 51 52 56 64 68 67 66 66 70 74 69 66 76 77 80 82
59 56 51 47 44 37 33 27 20 10 4 11 14 13 12 15 18 24 30 35 41 43 45 46 46 50 52 51 56 60 68 74 74 73 71 71 74 76 71 77 83 85 84
55 47 45 42 36 29 20 13 5 3 8 8 10 13 15 19 24 29 33 38 44 45 45 49 50 54 56 54 55 60 67 72 78 81 82 80 74 75 77 74 80 90 78
49 41 38 36 30 22 15 13 10 11 10 10 12 14 15 20 23 27 31 37 42 47 49 54 55 53 53 56 59 63 68 72 82 88 90 89 82 80 79 79 78 73 68
58 51 47 43 40 33 28 22 23 20 18 19 19 20 21 23 27 30 35 38 42 46 50 56 62 61 56 58 60 62 65 69 76 81 83 85 84 83 81 77 70 60 70
54 47 42 42 41 37 32 29 24 21 20 20 21 23 26 30 34 38 42 44 46 50 53 54 56 57 53 52 52 55 59 61 66 68 69 73 76 76 78 77 75 65 78
50 45 45 42 40 35 32 30 30 29 29 31 31 32 35 37 37 35 37 37 36 42 45 47 52 57 59 55 58 62 67 70 73 81 81 80 74 73 75 78 83 82 77
42 42 41 37 39 36 36 35 36 36 36 35 34 35 35 34 36 39 35 37 39 41 47 51 57 61 66 69 71 73 74 74 71 70 84 94 93 87 82 77 72 76 82
Wind_Direction_500mb
218 218 223 226 220 211 211 214 205 198 196 191 193 198 196 193 197 198 202 205 211 223 238 238 243 240 222 214 218 233 237 200 187 191 185 213 238 252 264 282 304 316 319
212 215 222 223 213 208 210 210 205 200 197 194 197 198 197 197 202 202 207 209 217 230 238 239 238 223 214 215 223 241 225 200 203 228 237 228 246 248 255 271 288 298 315
208 209 213 216 208 207 208 208 204 202 201 200 201 201 204 202 204 206 211 214 220 231 234 234 224 215 213 217 222 217 220 233 230 236 238 217 225 229 251 261 269 292 314
213 215 216 210 210 209 207 207 206 203 205 204 204 204 208 208 207 211 212 219 223 234 231 226 219 211 207 206 202 215 239 260 266 256 252 251 247 225 228 247 257 282 301
208 208 213 216 213 209 205 206 207 207 208 206 209 210 214 214 214 214 215 216 225 229 224 217 210 201 198 191 223 232 259 266 271 275 271 274 271 252 239 243 248 271 287
203 212 214 209 209 208 204 207 208 210 209 209 210 212 212 219 214 213 218 218 220 225 212 206 199 191 182 218 251 271 258 252 268 277 281 280 271 268 264 258 261 271 287
189 197 198 201 206 208 205 208 210 212 213 213 215 216 218 224 225 227 220 218 217 214 205 194 186 177 174 280 308 255 245 260 281 291 293 284 280 287 283 283 283 287 297
187 193 198 199 206 206 205 207 211 215 213 216 218 217 218 219 226 225 225 220 214 202 187 181 179 194 276 294 253 228 244 264 286 294 291 286 288 287 286 285 286 296 292
183 189 195 197 204 203 205 207 211 216 216 218 219 218 219 220 223 224 217 214 193 185 183 177 193 241 279 237 219 230 247 271 285 296 293 288 288 290 286 285 292 295 295
179 183 189 191 198 202 204 207 211 212 211 213 213 217 219 219 223 221 207 197 183 180 181 190 234 274 239 223 227 238 254 270 286 289 286 289 290 287 285 286 289 292 289
169 183 189 194 198 208 207 207 208 210 210 209 210 214 217 217 217 214 202 189 169 175 203 237 241 229 220 223 234 244 259 270 278 282 285 284 285 286 283 285 285 285 287
166 177 184 189 195 202 203 200 204 210 211 212 212 213 210 205 197 185 172 169 177 197 203 229 229 222 223 233 240 251 262 270 275 278 279 282 286 285 284 284 285 285 285
162 169 178 182 184 187 190 195 202 201 205 205 207 197 189 177 166 151 157 183 187 192 225 229 230 230 237 243 250 258 265 270 273 276 280 283 286 285 284 284 283 283 283
152 156 163 166 186 177 175 183 187 189 189 180 168 160 143 134 151 165 170 199 212 217 222 233 236 241 247 252 260 267 269 271 274 278 282 283 284 284 283 281 282 280 281
129 133 132 132 140 135 126 150 140 139 143 140 139 134 135 150 165 168 188 221 215 220 231 240 247 254 259 264 267 269 273 275 277 277 280 283 284 284 282 281 282 280 279
119 130 127 146 129 130 127 125 126 128 129 132 136 142 153 166 183 197 216 210 233 246 250 256 260 263 268 271 274 277 278 278 279 281 283 283 282 284 284 285 284 281 278
109 116 126 122 122 120 121 121 123 124 136 142 146 155 172 229 249 215 205 234 263 266 268 272 275 277 277 278 279 280 281 281 282 283 283 283 284 285 283 282 279 279 281
101 108 110 114 118 120 120 122 124 130 138 143 149 177 277 288 273 241 235 258 271 276 277 276 278 282 285 283 283 283 282 282 283 283 285 286 286 284 282 280 278 277 274
100 103 104 110 113 117 120 118 120 125 130 147 236 270 267 255 245 240 256 268 275 283 287 281 279 281 284 284 284 282 282 283 284 286 286 287 287 290 288 283 279 276 274
95 98 103 105 108 115 113 115 125 145 200 273 282 293 294 283 268 269 275 284 287 287 283 285 287 285 285 284 286 286 286 287 290 288 291 292 292 292 289 282 279 275 274
98 106 112 113 112 113 120 128 153 284 306 308 304 298 288 278 279 281 284 287 290 290 288 287 288 288 290 290 288 286 287 292 294 293 293 294 291 288 286 280 275 275 276
99 98 99 96 96 99 99 92 65 36 13 354 347 337 321 310 304 301 298 294 294 295 297 296 296 297 298 298 297 294 292 293 292 293 293 292 292 288 283 279 278 272 269
85 84 85 89 86 82 77 69 59 44 26 11 358 344 328 316 308 305 303 304 304 304 306 307 307 307 306 302 300 299 296 292 289 289 290 292 291 287 284 280 275 260 252
76 74 73 72 71 63 55 50 41 27 12 356 345 338 335 330 325 322 318 317 316 312 311 311 312 313 314 312 309 306 302 300 296 294 291 289 284 277 279 279 276 264 254
74 69 64 59 55 47 37 28 18 10 357 349 342 336 331 327 323 323 322 323 325 322 322 320 319 316 313 314 311 309 308 307 306 304 301 297 292 287 281 276 273 271 267
61 54 48 43 37 26 19 12 4 357 354 351 349 348 345 341 337 333 329 329 327 325 322 320 318 315 317 317 313 310 307 304 302 294 291 293 294 293 291 287 281 273 268
Wind_Speed_850mb
66 72 64 69 54 72 70 67 74 75 71 68 61 57 54 50 46 46 40 36 32 27 21 20 17 14 11 10 10 8 5 6 11 10 8 9 11 13 13 12 13 16 17
67 57 69 67 61 76 75 69 77 80 79 71 66 61 55 56 50 46 45 39 32 24 21 19 17 15 14 13 10 8 7 8 12 11 13 11 14 20 16 15 14 14 16
78 67 71 79 71 80 81 76 81 82 80 77 72 65 58 57 55 51 46 38 30 25 24 21 18 17 16 12 10 8 8 8 9 12 14 10 13 15 20 17 14 15 18
77 80 72 80 81 82 83 79 80 81 81 78 73 69 74 68 59 51 42 39 31 26 26 25 23 22 18 15 12 8 7 7 11 12 14 14 17 15 11 18 17 16 20
79 80 84 84 82 87 89 84 81 84 82 75 73 69 67 60 50 52 46 40 34 32 32 30 27 23 19 14 9 9 9 11 10 13 14 14 12 13 13 12 17 19 21
80 81 81 81 86 90 90 91 85 87 82 76 76 76 64 62 60 54 55 47 40 40 36 31 28 24 18 9 6 11 10 9 10 12 13 13 13 11 10 11 13 17 18
81 84 84 87 84 92 92 92 88 92 86 83 78 75 69 69 56 58 58 56 50 43 37 33 28 21 10 5 12 13 10 9 9 11 12 13 12 12 14 13 15 16 20
85 90 89 85 79 89 93 92 89 94 91 85 83 75 68 70 64 66 61 59 48 40 37 34 27 14 11 22 16 15 13 10 10 12 13 13 14 15 17 18 16 17 18
81 92 88 83 78 85 87 85 85 86 90 90 81 79 72 73 70 69 65 58 47 47 43 36 21 15 28 19 19 16 14 13 13 13 15 18 17 17 20 21 20 20 15
73 83 86 81 68 71 81 82 81 78 78 82 83 79 76 76 74 75 67 59 52 44 38 26 21 22 14 23 20 19 17 16 16 18 20 21 22 23 25 26 26 27 29
63 78 71 64 57 69 78 82 80 79 78 79 86 85 82 77 74 65 59 52 48 38 23 21 19 21 27 25 24 22 21 21 21 23 25 26 27 29 31 31 33 34 36
70 76 76 71 69 76 74 75 72 76 77 81 84 82 78 76 63 62 54 45 40 24 13 25 26 26 27 27 26 25 25 26 27 29 31 31 32 35 37 37 38 41 43
64 63 65 73 71 74 79 76 75 72 72 72 73 58 53 51 39 37 45 32 19 22 26 24 26 24 27 28 29 30 31 31 34 36 37 36 39 41 43 44 46 47 50
57 55 53 54 51 48 51 46 48 47 43 36 38 44 47 50 55 42 30 24 21 24 20 23 26 28 31 31 31 35 37 38 39 42 43 44 46 48 50 52 52 53 55
46 45 45 45 46 43 40 41 41 42 45 44 54 62 47 39 30 23 21 20 21 19 22 26 28 30 33 33 36 40 41 44 46 49 50 50 52 54 58 61 58 60 62
51 55 53 46 51 48 45 41 43 51 53 58 54 46 35 23 15 14 16 18 17 19 24 27 30 34 36 36 40 44 48 51 52 54 53 55 57 61 64 66 68 69 67
44 46 45 43 46 53 54 58 61 62 52 46 40 32 21 9 6 10 16 14 17 24 28 31 34 36 39 41 45 50 53 56 56 58 58 60 62 64 68 69 72 73 74
47 48 53 55 59 58 58 57 51 45 37 28 20 12 12 16 13 12 16 21 25 30 34 35 37 41 43 47 50 54 60 61 60 62 63 66 67 67 69 70 73 75 76
52 52 61 54 55 50 47 43 38 27 17 9 7 14 19 18 18 19 22 28 34 37 39 42 46 48 46 51 52 56 64 68 67 66 66 70 74 69 66 76 77 80 82
59 56 51 47 44 37 33 27 20 10 4 11 14 13 12 15 18 24 30 35 41 43 45 46 46 50 52 51 56 60 68 74 74 73 71 71 74 76 71 77 83 85 84
55 47 45 42 36 29 20 13 5 3 8 8 10 13 15 19 24 29 33 38 44 45 45 49 50 54 56 54 55 60 67 72 78 81 82 80 74 75 77 74 80 90 78
49 41 38 36 30 22 15 13 10 11 10 10 12 14 15 20 23 27 31 37 42 47 49 54 55 53 53 56 59 63 68 72 82 88 90 89 82 80 79 79 78 73 68
58 51 47 43 40 33 28 22 23 20 18 19 19 20 21 23 27 30 35 38 42 46 50 56 62 61 56 58 60 62 65 69 76 81 83 85 84 83 81 77 70 60 70
54 47 42 42 41 37 32 29 24 21 20 20 21 23 26 30 34 38 42 44 46 50 53 54 56 57 53 52 52 55 59 61 66 68 69 73 76 76 78 77 75 65 78
50 45 45 42 40 35 32 30 30 29 29 31 31 32 35 37 37 35 37 37 36 42 45 47 52 57 59 55 58 62 67 70 73 81 81 80 74 73 75 78 83 82 77
42 42 41 37 39 36 36 35 36 36 36 35 34 35 35 34 36 39 35 37 39 41 47 51 57 61 66 69 71 73 74 74 71 70 84 94 93 87 82 77 72 76 82
Wind_Direction_850mb
218 218 223 226 220 211 211 214 205 198 196 191 193 198 196 193 197 198 202 205 211 223 238 238 243 240 222 214 218 233 237 200 187 191 185 213 238 252 264 282 304 316 319
212 215 222 223 213 208 210 210 205 200 197 194 197 198 197 197 202 202 207 209 217 230 238 239 238 223 214 215 223 241 225 200 203 228 237 228 246 248 255 271 288 298 315
208 209 213 216 208 207 208 208 204 202 201 200 201 201 204 202 204 206 211 214 220 231 234 234 224 215 213 217 222 217 220 233 230 236 238 217 225 229 251 261 269 292 314
213 215 216 210 210 209 207 207 206 203 205 204 204 204 208 208 207 211 212 219 223 234 231 226 219 211 207 206 202 215 239 260 266 256 252 251 247 225 228 247 257 282 301
208 208 213 216 213 209 205 206 207 207 208 206 209 210 214 214 214 214 215 216 225 229 224 217 210 201 198 191 223 232 259 266 271 275 271 274 271 252 239 243 248 271 287
203 212 214 209 209 208 204 207 208 210 209 209 210 212 212 219 214 213 218 218 220 225 212 206 199 191 182 218 251 271 258 252 268 277 281 280 271 268 264 258 261 271 287
189 197 198 201 206 208 205 208 210 212 213 213 215 216 218 224 225 227 220 218 217 214 205 194 186 177 174 280 308 255 245 260 281 291 293 284 280 287 283 283 283 287 297
187 193 198 199 206 206 205 207 211 215 213 216 218 217 218 219 226 225 225 220 214 202 187 181 179 194 276 294 253 228 244 264 286 294 291 286 288 287 286 285 286 296 292
183 189 195 197 204 203 205 207 211 216 216 218 219 218 219 220 223 224 217 214 193 185 183 177 193 241 279 237 219 230 247 271 285 296 293 288 288 290 286 285 292 295 295
179 183 189 191 198 202 204 207 211 212 211 213 213 217 219 219 223 221 207 197 183 180 181 190 234 274 239 223 227 238 254 270 286 289 286 289 290 287 285 286 289 292 289
169 183 189 194 198 208 207 207 208 210 210 209 210 214 217 217 217 214 202 189 169 175 203 237 241 229 220 223 234 244 259 270 278 282 285 284 285 286 283 285 285 285 287
166 177 184 189 195 202 203 200 204 210 211 212 212 213 210 205 197 185 172 169 177 197 203 229 229 222 223 233 240 251 262 270 275 278 279 282 286 285 284 284 285 285 285
162 169 178 182 184 187 190 195 202 201 205 205 207 197 189 177 166 151 157 183 187 192 225 229 230 230 237 243 250 258 265 270 273 276 280 283 286 285 284 284 283 283 283
152 156 163 166 186 177 175 183 187 189 189 180 168 160 143 134 151 165 170 199 212 217 222 233 236 241 247 252 260 267 269 271 274 278 282 283 284 284 283 281 282 280 281
129 133 132 132 140 135 126 150 140 139 143 140 139 134 135 150 165 168 188 221 215 220 231 240 247 254 259 264 267 269 273 275 277 277 280 283 284 284 282 281 282 280 279
119 130 127 146 129 130 127 125 126 128 129 132 136 142 153 166 183 197 216 210 233 246 250 256 260 263 268 271 274 277 278 278 279 281 283 283 282 284 284 285 284 281 278
109 116 126 122 122 120 121 121 123 124 136 142 146 155 172 229 249 215 205 234 263 266 268 272 275 277 277 278 279 280 281 281 282 283 283 283 284 285 283 282 279 279 281
101 108 110 114 118 120 120 122 124 130 138 143 149 177 277 288 273 241 235 258 271 276 277 276 278 282 285 283 283 283 282 282 283 283 285 286 286 284 282 280 278 277 274
100 103 104 110 113 117 120 118 120 125 130 147 236 270 267 255 245 240 256 268 275 283 287 281 279 281 284 284 284 282 282 283 284 286 286 287 287 290 288 283 279 276 274
95 98 103 105 108 115 113 115 125 145 200 273 282 293 294 283 268 269 275 284 287 287 283 285 287 285 285 284 286 286 286 287 290 288 291 292 292 292 289 282 279 275 274
98 106 112 113 112 113 120 128 153 284 306 308 304 298 288 278 279 281 284 287 290 290 288 287 288 288 290 290 288 286 287 292 294 293 293 294 291 288 286 280 275 275 276
99 98 99 96 96 99 99 92 65 36 13 354 347 337 321 310 304 301 298 294 294 295 297 296 296 297 298 298 297 294 292 293 292 293 293 292 292 288 283 279 278 272 269
85 84 85 89 86 82 77 69 59 44 26 11 358 344 328 316 308 305 303 304 304 304 306 307 307 307 306 302 300 299 296 292 289 289 290 292 291 287 284 280 275 260 252
76 74 73 72 71 63 55 50 41 27 12 356 345 338 335 330 325 322 318 317 316 312 311 311 312 313 314 312 309 306 302 300 296 294 291 289 284 277 279 279 276 264 254
74 69 64 59 55 47 37 28 18 10 357 349 342 336 331 327 323 323 322 323 325 322 322 320 319 316 313 314 311 309 308 307 306 304 301 297 292 287 281 276 273 271 267
61 54 48 43 37 26 19 12 4 357 354 351 349 348 345 341 337 333 329 329 327 325 322 320 318 315 317 317 313 310 307 304 302 294 291 293 294 293 291 287 281 273 268